Regional Weather Roundup
Issued by NWS

Home | Current Version | Previous Version | Graphics & Text | Print | Product List | Glossary On
Versions: 1 2 3 4 5 6 7 8 9 10 11 12 13 14 15 16 17 18 19 20 21 22 23 24 25 26 27 28 29 30 31 32 33 34 35 36 37 38 39 40 41 42 43 44 45 46 47 48 49 50
000
ASUS43 KBIS 210020
RWRND

NORTH DAKOTA REGIONAL WEATHER ROUNDUP
NATIONAL WEATHER SERVICE BISMARCK ND
600 PM CST THU NOV 20 2014

NOTE: "FAIR" INDICATES FEW OR NO CLOUDS BELOW 12,000 FEET WITH NO
SIGNIFICANT WEATHER AND/OR OBSTRUCTIONS TO VISIBILITY.


NDZ001>003-009>011-017-210100-
NORTHWEST NORTH DAKOTA

CITY           SKY/WX    TMP DP  RH WIND       PRES   REMARKS
WILLISTON      CLOUDY    23  15  71 S8        29.85F WCI  14
6HR MIN TEMP:  17; 6HR MAX TEMP:  24;

MINOT          PTCLDY    16   8  71 SE10      29.93F WCI   4
MINOT AFB      PTCLDY    14   8  78 S8        29.92F WCI   3
$$

NDZ018>021-031>035-040>046-210100-
SOUTHWEST NORTH DAKOTA

CITY           SKY/WX    TMP DP  RH WIND       PRES   REMARKS
BISMARCK       PTCLDY    15   8  73 S8        30.01F WCI   4
6HR MIN TEMP:  15; 6HR MAX TEMP:  22;

DICKINSON      CLEAR     20  16  84 S13       29.85F WCI   7
GARRISON         N/A     19  13  77 S13       29.93F WCI   6
6HR MIN TEMP:  18; 6HR MAX TEMP:  21;

HETTINGER ARPT PTCLDY    23  17  78 SE8       29.91F WCI  14
$$

NDZ004>008-012>016-024-026-027-054-210100-
NORTHEAST NORTH DAKOTA

CITY           SKY/WX    TMP DP  RH WIND       PRES   REMARKS
GRAND FORKS    CLEAR     13   3  64 SE8       30.12R WCI   2
GRND FRKS AFB  CLEAR     10   1  66 S7        30.11R WCI  -1
DEVILS LAKE    CLEAR     16   1  53 S9        30.00F WCI   4
$$

NDZ022-023-025-028>030-036>039-047>053-210100-
SOUTHEAST NORTH DAKOTA

CITY           SKY/WX    TMP DP  RH WIND       PRES   REMARKS
FARGO          CLEAR     16   1  51 S3        30.14S
6HR MIN TEMP:  15; 6HR MAX TEMP:  22;

JAMESTOWN      PTCLDY    13   5  70 S6        30.06S WCI   4
$$




USA.gov is the U.S. government's official web portal to all federal, state and local government web resources and services.